ONEWEB-0671 (55830 NORAD) Tracking and Keplerian Element Data

This shows tracking and keplerian element data for the satellite.

Feedback or suggestion? Click here.




ElementValue
Catalog55830
NameONEWEB-0671
Epoch Orbit928
Epoch Day127.25001157
Epoch Year2023
RAAN175.2541
Inclination86.9638
Eccentricity0.0013128
Argument of Perigee31.5201
Mean Anonmoly164.8809
Mean Motion14.27606825
Decay Rate-0.00999748
L11 55830U 23029AL 23127.25001157 -.00999748 00000+0 -43305+0 0 9994
L22 55830 86.9638 175.2541 0013128 31.5201 164.8809 14.27606825 9281



Live tracking and technical data element details for ONEWEB-0671 (NORAD 55830). ONEWEB-0671 can be tracked NOW for your location showing map with azimuth and elevation plus other details from your city location.







IsCatalogInMostPopularTable: catalog: 55830, numindb: 6
Update: records affected: 1



GetName: 55830 ONEWEB-0671

Hit Count: updated at: Tue, 06 Jun 2023 02:35:45 GMT